Weather History for Bartlesville, OK

Change the Weather History Date:

Monday, April 22, 2013

  Actual Average Record
Temperature  
Mean Temperature 58 °F -  
Max Temperature 75 °F 75 °F 96 °F (1955)
Min Temperature 44 °F 49 °F 31 °F (1986)
Degree Days  
Heating Degree Days 7    
Growing Degree Days 8 (Base 50)    
Moisture  
Dew Point 46 °F    
Average Humidity 61    
Maximum Humidity 93    
Minimum Humidity 43    
Precipitation  
Precipitation 0.00 in - - ()
Sea Level Pressure  
Sea Level Pressure 29.97 in    
Wind  
Wind Speed 6 mph (SSE)    
Max Wind Speed 16 mph    
Max Gust Speed 26 mph    
Visibility 10 miles    
Events Thunderstorm    
Averages and records for this station are not official NWS values.
T = Trace of Precipitation, MM = Missing Value Source: NWS Daily Summary

Daily Weather History Graph

Daily Weather History Graph

Search for Another Location

Airport:

Trip Planner

Search our weather history database for the weather conditions in past years. The results will help you decide how hot, cold, wet, or windy it might be!

Date:

Astronomy

Apr. 22, 2013 Rise Set
Actual Time 6:40 AM CDT 8:04 PM CDT
Civil Twilight 6:13 AM CDT 8:32 PM CDT
Nautical Twilight 5:40 AM CDT 9:04 PM CDT
Astronomical Twilight 5:06 AM CDT 9:39 PM CDT
Moon 4:59 PM CDT (4/22) 4:30 AM CDT (4/22)
Length of Visible Light 14h 18m
Length of Day
13h 24m
Waxing Gibbous, 88% of the Moon is Illuminated
Apr 22
Waxing Gibbous
Apr 25
Full
May 2
Last Quarter
May 9
New
May 17
First Quarter

Hourly Weather History & Observations

Time (CDT) Temp. Dew Point Humidity Pressure Visibility Wind Dir Wind Speed Gust Speed Precip Events Conditions
12:53 AM 44.1 °F 42.1 °F 93% 30.13 in 10.0 mi Calm Calm - N/A   Clear
1:53 AM 48.9 °F 42.1 °F 77% 30.11 in 10.0 mi Calm Calm - N/A   Clear
2:53 AM 48.0 °F 41.0 °F 77% 30.09 in 10.0 mi South 3.5 mph - N/A   Clear
3:53 AM 50.0 °F 41.0 °F 71% 30.09 in 10.0 mi South 4.6 mph - N/A   Clear
4:53 AM 48.9 °F 41.0 °F 74% 30.08 in 10.0 mi Calm Calm - N/A   Clear
5:53 AM 46.9 °F 41.0 °F 80% 30.09 in 10.0 mi Calm Calm - N/A   Clear
6:53 AM 48.9 °F 41.0 °F 74% 30.10 in 10.0 mi Calm Calm - N/A   Clear
7:53 AM 50.0 °F 43.0 °F 77% 30.08 in 10.0 mi SSE 6.9 mph - N/A   Clear
8:53 AM 55.9 °F 42.1 °F 60% 30.08 in 10.0 mi SSE 13.8 mph 21.9 mph N/A   Clear
9:53 AM 61.0 °F 43.0 °F 52% 30.07 in 10.0 mi SSE 13.8 mph 19.6 mph N/A   Clear
10:53 AM 66.0 °F 44.1 °F 45% 30.03 in 10.0 mi SSE 16.1 mph 26.5 mph N/A   Clear
11:53 AM 66.9 °F 44.1 °F 44% 30.00 in 10.0 mi SSE 15.0 mph 24.2 mph N/A   Partly Cloudy
12:53 PM 68.0 °F 45.0 °F 43% 29.96 in 10.0 mi SSE 16.1 mph 26.5 mph N/A   Mostly Cloudy
1:28 PM 64.4 °F 44.6 °F 49% 29.97 in 10.0 mi South 10.4 mph 26.5 mph N/A Thunderstorm Thunderstorm
1:53 PM 63.0 °F 52.0 °F 67% 29.93 in 8.0 mi SSE 11.5 mph - N/A Thunderstorm Thunderstorm
2:12 PM 64.4 °F 51.8 °F 64% 29.93 in 10.0 mi SSE 10.4 mph - N/A   Overcast
2:53 PM 70.0 °F 50.0 °F 49% 29.89 in 10.0 mi South 11.5 mph 18.4 mph N/A   Mostly Cloudy
3:53 PM 72.0 °F 48.9 °F 44% 29.86 in 10.0 mi SSE 16.1 mph 25.3 mph N/A   Mostly Cloudy
4:53 PM 72.0 °F 48.9 °F 44% 29.85 in 10.0 mi SE 12.7 mph - N/A   Overcast
5:53 PM 72.0 °F 50.0 °F 46% 29.85 in 10.0 mi SSE 8.1 mph - N/A   Overcast
6:53 PM 71.1 °F 51.1 °F 49% 29.85 in 10.0 mi SSE 9.2 mph - N/A   Overcast
7:53 PM 68.0 °F 52.0 °F 56% 29.83 in 10.0 mi SSE 9.2 mph - N/A   Clear
8:53 PM 66.0 °F 51.1 °F 59% 29.84 in 10.0 mi SSE 8.1 mph - N/A   Clear
9:53 PM 66.0 °F 51.1 °F 59% 29.85 in 10.0 mi Calm Calm - N/A   Partly Cloudy
10:53 PM 63.0 °F 52.0 °F 67% 29.87 in 10.0 mi SSE 5.8 mph - N/A   Mostly Cloudy
11:53 PM 62.1 °F 53.1 °F 72% 29.89 in 10.0 mi Calm Calm - N/A   Overcast